sat.trackr.live / text

‹ back to catalog

STARLINK-35508

NORAD 65912 · 2025-225C

PAYLOAD ACTIVE UNKNOWN

§ Identity

Operator
Country
US
Launch date
2025-10-08
Launch site
AFWTR
Launch vehicle
Mass (kg)
RCS (m²)

Purposes: comms

External: N2YO · Heavens-Above · Gunter

§ Orbital elements

Epoch: 2026-05-24T13:43:55.927776Z

Period
94.03 min
Inclination
53.1582°
Eccentricity
0.0002155
Mean motion
15.31495239 rev/d
Perigee alt
469.9 km
Apogee alt
472.8 km
Semi-major
6,849.5 km
B*
1.6962e-2
RAAN
173.3881°
Arg perigee
96.4350°
Mean anomaly
263.6896°
Rev number
3,602

§ Raw data

STARLINK-355081 65912U 25225C   26144.57217509  .00557071  00000+0  16962-1 0  99912 65912  53.1582 173.3881 0002155  96.4350 263.6896 15.31495239 36023

JSON: /api/v1/satellites/65912 · /tle

For live sub-satellite position, see the globe view (requires WebGL).

§ Visibility from observer

Set your observer location to see the next 7 days of passes ≥ 10°. The values pass through the URL so the page stays shareable.

No JS? Fill the form by hand. The geolocation button needs JavaScript.